Location: ???????????
(55.5758°N, 38.4970°E)
Time: 18:07:08
(UTC+00:00)

Cosmos 1000 Rocket - Pass Details

Date: 15 November 2025
Orbit: 952 x 992 km, 82.9° (Epoch: 14 December)

Event Time Altitude Azimuth Distance (km) Brightness Sun altitude
Exits shadow 01:28:41 82° 194° (SSW) 1,010 4.4 -29.5°
Maximum altitude 01:29:01 89° 285° (WNW) 1,001 4.4 -29.5°
Drops below altitude 10° 01:35:24 10° 12° (NNE) 2,764 7.1 -28.6°
Sets 01:37:56 0° 12° (NNE) 3,713 7.8 -28.2°
